Time,TemperatureF,DewpointF,PressureIn,WindDirection,WindDirectionDegrees,WindSpeedMPH,WindSpeedGustMPH,Humidity,HourlyPrecipIn,Conditions,Clouds,dailyrainin,SoftwareType,DateUTC
2013-03-12 00:03:00,12.8,9.4,29.89,North,9,2.0,3.0,86,0.00,,---,0.00,VWS V13.01,2013-03-12 05:03:00,
2013-03-12 00:08:00,12.8,9.4,29.89,NNW,338,3.0,6.0,86,0.00,,---,0.00,VWS V13.01,2013-03-12 05:08:00,
2013-03-12 00:13:00,12.8,9.7,29.89,North,360,4.0,9.0,87,0.00,,---,0.00,VWS V13.01,2013-03-12 05:13:00,
2013-03-12 00:18:00,12.7,9.3,29.88,NNW,335,5.0,11.0,86,0.00,,---,0.00,VWS V13.01,2013-03-12 05:18:00,
2013-03-12 00:23:00,12.7,9.3,29.88,NNW,342,2.0,11.0,86,0.00,,---,0.00,VWS V13.01,2013-03-12 05:23:00,
2013-03-12 00:28:00,12.7,9.1,29.88,North,9,6.0,12.0,85,0.00,,---,0.00,VWS V13.01,2013-03-12 05:28:00,
2013-03-12 00:33:00,12.6,9.0,29.87,NNW,344,6.0,16.0,85,0.00,,---,0.00,VWS V13.01,2013-03-12 05:33:00,
2013-03-12 00:38:00,12.5,8.9,29.87,NNE,25,3.0,16.0,85,0.00,,---,0.00,VWS V13.01,2013-03-12 05:38:00,
2013-03-12 00:43:00,12.4,8.5,29.87,North,11,2.0,16.0,84,0.00,,---,0.00,VWS V13.01,2013-03-12 05:43:00,
2013-03-12 00:48:00,12.4,8.8,29.89,North,5,3.0,11.0,85,0.00,,---,0.00,VWS V13.01,2013-03-12 05:48:00,
2013-03-12 00:53:00,12.3,8.7,29.89,NNE,18,5.0,11.0,85,0.00,,---,0.00,VWS V13.01,2013-03-12 05:53:00,
2013-03-12 00:58:00,12.2,8.6,29.89,NNE,23,3.0,11.0,85,0.00,,---,0.00,VWS V13.01,2013-03-12 05:58:00,
2013-03-12 01:03:00,12.2,8.6,29.88,NNW,343,4.0,6.0,85,0.00,,---,0.00,VWS V13.01,2013-03-12 06:03:00,
2013-03-12 01:08:00,12.1,8.5,29.88,North,10,3.0,8.0,85,0.00,,---,0.00,VWS V13.01,2013-03-12 06:08:00,
2013-03-12 01:13:00,12.1,8.7,29.88,NW,309,3.0,11.0,86,0.00,,---,0.00,VWS V13.01,2013-03-12 06:13:00,
2013-03-12 01:18:00,12.0,8.6,29.85,North,360,4.0,5.0,86,0.00,,---,0.00,VWS V13.01,2013-03-12 06:18:00,
2013-03-12 01:24:00,12.0,8.6,29.85,North,355,3.0,10.0,86,0.00,,---,0.00,VWS V13.01,2013-03-12 06:24:00,
2013-03-12 01:29:00,11.9,8.8,29.85,NNW,335,2.0,10.0,87,0.00,,---,0.00,VWS V13.01,2013-03-12 06:29:00,
2013-03-12 01:34:00,12.0,8.9,29.85,NNW,336,2.0,12.0,87,0.00,,---,0.00,VWS V13.01,2013-03-12 06:34:00,
2013-03-12 01:39:00,12.0,8.9,29.85,NNW,346,3.0,12.0,87,0.00,,---,0.00,VWS V13.01,2013-03-12 06:39:00,
2013-03-12 01:44:00,11.9,8.8,29.85,SE,126,2.0,12.0,87,0.00,,---,0.00,VWS V13.01,2013-03-12 06:44:00,
2013-03-12 01:50:00,11.9,8.8,29.85,NW,326,3.0,9.0,87,0.00,,---,0.00,VWS V13.01,2013-03-12 06:50:00,
2013-03-12 01:54:00,11.9,8.8,29.85,NNW,329,5.0,9.0,87,0.00,,---,0.00,VWS V13.01,2013-03-12 06:54:00,
2013-03-12 01:59:00,11.8,8.9,29.85,NW,317,4.0,9.0,88,0.00,,---,0.00,VWS V13.01,2013-03-12 06:59:00,
2013-03-12 02:04:00,11.9,9.0,29.85,NNW,336,6.0,9.0,88,0.00,,---,0.00,VWS V13.01,2013-03-12 07:04:00,
2013-03-12 02:09:00,11.9,9.0,29.85,NW,306,6.0,9.0,88,0.00,,---,0.00,VWS V13.01,2013-03-12 07:09:00,
2013-03-12 02:15:00,11.9,9.0,29.85,NNW,336,1.0,9.0,88,0.00,,---,0.00,VWS V13.01,2013-03-12 07:15:00,
2013-03-12 02:20:00,11.9,9.0,29.85,NW,315,3.0,7.0,88,0.00,,---,0.00,VWS V13.01,2013-03-12 07:20:00,
2013-03-12 02:25:00,11.8,8.9,29.85,NW,324,6.0,9.0,88,0.00,,---,0.00,VWS V13.01,2013-03-12 07:25:00,
2013-03-12 02:30:00,11.8,8.9,29.85,NNW,344,0.0,0.0,88,0.00,,---,0.00,VWS V13.01,2013-03-12 07:30:00,
2013-03-12 02:35:00,11.8,8.9,29.85,NW,321,3.0,8.0,88,0.00,,---,0.00,VWS V13.01,2013-03-12 07:35:00,
2013-03-12 02:40:00,11.7,8.8,29.85,NNW,346,4.0,11.0,88,0.00,,---,0.00,VWS V13.01,2013-03-12 07:40:00,
2013-03-12 02:45:00,11.7,8.8,29.85,North,11,1.0,3.0,88,0.00,,---,0.00,VWS V13.01,2013-03-12 07:45:00,
2013-03-12 02:50:00,11.6,8.7,29.85,NNW,342,3.0,9.0,88,0.00,,---,0.00,VWS V13.01,2013-03-12 07:50:00,
2013-03-12 02:55:00,11.6,8.7,29.85,NNW,331,2.0,9.0,88,0.00,,---,0.00,VWS V13.01,2013-03-12 07:55:00,
2013-03-12 03:00:00,11.4,8.5,29.86,NW,323,5.0,5.0,88,0.00,,---,0.00,VWS V13.01,2013-03-12 08:00:00,
2013-03-12 03:05:00,11.3,8.4,29.86,NW,310,7.0,12.0,88,0.00,,---,0.00,VWS V13.01,2013-03-12 08:05:00,
2013-03-12 03:10:00,11.3,8.4,29.86,NNW,329,3.0,12.0,88,0.00,,---,0.00,VWS V13.01,2013-03-12 08:10:00,
2013-03-12 03:15:00,11.2,8.4,29.85,NNW,339,5.0,11.0,88,0.00,,---,0.00,VWS V13.01,2013-03-12 08:15:00,
2013-03-12 03:20:00,11.2,8.4,29.85,North,355,5.0,14.0,88,0.00,,---,0.00,VWS V13.01,2013-03-12 08:20:00,
2013-03-12 03:26:00,11.1,8.2,29.85,North,360,5.0,14.0,88,0.00,,---,0.00,VWS V13.01,2013-03-12 08:26:00,
2013-03-12 03:31:00,11.0,8.1,29.85,NNW,343,4.0,9.0,88,0.00,,---,0.00,VWS V13.01,2013-03-12 08:31:00,
2013-03-12 03:36:00,10.9,7.8,29.85,NNW,340,8.0,10.0,87,0.00,,---,0.00,VWS V13.01,2013-03-12 08:36:00,
2013-03-12 03:41:00,10.8,7.7,29.85,North,351,4.0,13.0,87,0.00,,---,0.00,VWS V13.01,2013-03-12 08:41:00,
2013-03-12 03:46:00,10.7,7.6,29.86,NNE,16,10.0,10.0,87,0.00,,---,0.00,VWS V13.01,2013-03-12 08:46:00,
2013-03-12 03:51:00,10.7,7.8,29.86,North,351,3.0,10.0,88,0.00,,---,0.00,VWS V13.01,2013-03-12 08:51:00,
2013-03-12 03:56:00,10.6,7.8,29.86,North,11,5.0,11.0,88,0.00,,---,0.00,VWS V13.01,2013-03-12 08:56:00,
2013-03-12 04:02:00,10.5,7.7,29.85,North,360,5.0,7.0,88,0.00,,---,0.00,VWS V13.01,2013-03-12 09:02:00,
2013-03-12 04:07:00,10.5,7.7,29.85,North,355,11.0,11.0,88,0.00,,---,0.00,VWS V13.01,2013-03-12 09:07:00,
2013-03-12 04:12:00,10.5,7.7,29.85,NNW,342,4.0,11.0,88,0.00,,---,0.00,VWS V13.01,2013-03-12 09:12:00,
2013-03-12 04:17:00,10.4,7.6,29.86,North,9,4.0,10.0,88,0.00,,---,0.00,VWS V13.01,2013-03-12 09:17:00,
2013-03-12 04:22:00,10.3,7.5,29.86,NNE,13,1.0,12.0,88,0.00,,---,0.00,VWS V13.01,2013-03-12 09:22:00,
2013-03-12 04:27:00,10.3,7.2,29.86,NNW,344,4.0,12.0,87,0.00,,---,0.00,VWS V13.01,2013-03-12 09:27:00,
2013-03-12 04:32:00,10.2,7.1,29.86,North,355,1.0,7.0,87,0.00,,---,0.00,VWS V13.01,2013-03-12 09:32:00,
2013-03-12 04:37:00,10.1,7.0,29.86,North,360,2.0,11.0,87,0.00,,---,0.00,VWS V13.01,2013-03-12 09:37:00,
2013-03-12 04:43:00,10.1,7.3,29.86,WNW,300,7.0,11.0,88,0.00,,---,0.00,VWS V13.01,2013-03-12 09:43:00,
2013-03-12 04:48:00,10.1,7.3,29.87,North,355,8.0,9.0,88,0.00,,---,0.00,VWS V13.01,2013-03-12 09:48:00,
2013-03-12 04:53:00,10.1,7.3,29.87,North,360,5.0,12.0,88,0.00,,---,0.00,VWS V13.01,2013-03-12 09:53:00,
2013-03-12 04:58:00,10.0,7.2,29.87,NW,315,13.0,13.0,88,0.00,,---,0.00,VWS V13.01,2013-03-12 09:58:00,
2013-03-12 05:03:00,9.9,7.1,29.87,NW,312,6.0,11.0,88,0.00,,---,0.00,VWS V13.01,2013-03-12 10:03:00,
2013-03-12 05:08:00,9.9,6.8,29.87,North,350,7.0,11.0,87,0.00,,---,0.00,VWS V13.01,2013-03-12 10:08:00,
2013-03-12 05:13:00,9.9,6.8,29.87,NNW,327,8.0,11.0,87,0.00,,---,0.00,VWS V13.01,2013-03-12 10:13:00,
2013-03-12 05:18:00,9.8,6.7,29.89,North,351,4.0,10.0,87,0.00,,---,0.00,VWS V13.01,2013-03-12 10:18:00,
2013-03-12 05:24:00,9.7,6.6,29.89,North,9,4.0,10.0,87,0.00,,---,0.00,VWS V13.01,2013-03-12 10:24:00,
2013-03-12 05:29:00,9.7,6.9,29.89,NW,324,3.0,10.0,88,0.00,,---,0.00,VWS V13.01,2013-03-12 10:29:00,
2013-03-12 05:34:00,9.7,6.9,29.90,North,11,5.0,6.0,88,0.00,,---,0.00,VWS V13.01,2013-03-12 10:34:00,
2013-03-12 05:39:00,9.6,6.8,29.90,NNW,329,1.0,7.0,88,0.00,,---,0.00,VWS V13.01,2013-03-12 10:39:00,
2013-03-12 05:44:00,9.6,6.8,29.90,NW,322,4.0,7.0,88,0.00,,---,0.00,VWS V13.01,2013-03-12 10:44:00,
2013-03-12 05:49:00,9.5,6.7,29.90,NNW,346,2.0,11.0,88,0.00,,---,0.00,VWS V13.01,2013-03-12 10:49:00,
2013-03-12 05:54:00,9.5,6.7,29.90,NW,319,5.0,11.0,88,0.00,,---,0.00,VWS V13.01,2013-03-12 10:54:00,
2013-03-12 05:59:00,9.4,6.6,29.92,NNW,339,3.0,12.0,88,0.00,,---,0.00,VWS V13.01,2013-03-12 10:59:00,
2013-03-12 06:04:00,9.4,6.3,29.92,NNW,340,8.0,13.0,87,0.00,,---,0.00,VWS V13.01,2013-03-12 11:04:00,
2013-03-12 06:09:00,9.4,6.3,29.92,NNW,345,4.0,13.0,87,0.00,,---,0.00,VWS V13.01,2013-03-12 11:09:00,
2013-03-12 06:14:00,9.3,6.5,29.92,North,351,6.0,13.0,88,0.00,,---,0.00,VWS V13.01,2013-03-12 11:14:00,
2013-03-12 06:19:00,9.2,6.1,29.92,NW,323,5.0,9.0,87,0.00,,---,0.00,VWS V13.01,2013-03-12 11:19:00,
2013-03-12 06:24:00,9.1,6.0,29.92,North,360,10.0,11.0,87,0.00,,---,0.00,VWS V13.01,2013-03-12 11:24:00,
2013-03-12 06:29:00,9.0,5.9,29.93,North,5,9.0,15.0,87,0.00,,---,0.00,VWS V13.01,2013-03-12 11:29:00,
2013-03-12 06:35:00,8.9,5.8,29.93,North,360,5.0,16.0,87,0.00,,---,0.00,VWS V13.01,2013-03-12 11:35:00,
2013-03-12 06:40:00,8.7,5.4,29.93,WNW,298,6.0,16.0,86,0.00,,---,0.00,VWS V13.01,2013-03-12 11:40:00,
2013-03-12 06:45:00,8.7,5.6,29.93,NNW,332,2.0,5.0,87,0.00,,---,0.00,VWS V13.01,2013-03-12 11:45:00,
2013-03-12 06:50:00,8.6,5.5,29.93,North,9,7.0,10.0,87,0.00,,---,0.00,VWS V13.01,2013-03-12 11:50:00,
2013-03-12 06:55:00,8.6,5.5,29.93,NNW,328,4.0,10.0,87,0.00,,---,0.00,VWS V13.01,2013-03-12 11:55:00,
2013-03-12 07:00:00,8.6,5.5,29.94,North,355,1.0,3.0,87,0.00,,---,0.00,VWS V13.01,2013-03-12 12:00:00,
2013-03-12 07:05:00,8.6,5.5,29.94,NNW,329,6.0,11.0,87,0.00,,---,0.00,VWS V13.01,2013-03-12 12:05:00,
2013-03-12 07:10:00,8.6,5.5,29.94,NNW,333,2.0,13.0,87,0.00,,---,0.00,VWS V13.01,2013-03-12 12:10:00,
2013-03-12 07:15:00,8.6,5.5,29.96,NW,312,3.0,7.0,87,0.00,,---,0.00,VWS V13.01,2013-03-12 12:15:00,
2013-03-12 07:20:00,8.6,5.5,29.96,NW,320,4.0,14.0,87,0.00,,---,0.00,VWS V13.01,2013-03-12 12:20:00,
2013-03-12 07:26:00,8.5,5.4,29.96,NNW,340,3.0,14.0,87,0.00,,---,0.00,VWS V13.01,2013-03-12 12:26:00,
2013-03-12 07:31:00,8.5,5.4,29.96,NNW,346,3.0,12.0,87,0.00,,---,0.00,VWS V13.01,2013-03-12 12:31:00,
2013-03-12 07:36:00,8.5,5.4,29.96,North,355,4.0,12.0,87,0.00,,---,0.00,VWS V13.01,2013-03-12 12:36:00,
2013-03-12 07:42:00,8.5,5.4,29.96,North,5,4.0,15.0,87,0.00,,---,0.00,VWS V13.01,2013-03-12 12:42:00,
2013-03-12 07:47:00,8.5,5.4,29.98,North,355,1.0,6.0,87,0.00,,---,0.00,VWS V13.01,2013-03-12 12:47:00,
2013-03-12 07:52:00,8.5,5.4,29.98,North,349,2.0,11.0,87,0.00,,---,0.00,VWS V13.01,2013-03-12 12:52:00,
2013-03-12 07:57:00,8.5,5.4,29.98,NW,309,5.0,11.0,87,0.00,,---,0.00,VWS V13.01,2013-03-12 12:57:00,
2013-03-12 08:02:00,8.5,5.4,29.96,NNW,338,5.0,10.0,87,0.00,,---,0.00,VWS V13.01,2013-03-12 13:02:00,
2013-03-12 08:07:00,8.4,5.3,29.96,NNE,17,4.0,11.0,87,0.00,,---,0.00,VWS V13.01,2013-03-12 13:07:00,
2013-03-12 08:12:00,8.4,5.3,29.96,NW,311,10.0,14.0,87,0.00,,---,0.00,VWS V13.01,2013-03-12 13:12:00,
2013-03-12 08:17:00,8.4,5.3,29.98,NW,323,10.0,14.0,87,0.00,,---,0.00,VWS V13.01,2013-03-12 13:17:00,
2013-03-12 08:22:00,8.5,5.4,29.98,NNW,347,5.0,14.0,87,0.00,,---,0.00,VWS V13.01,2013-03-12 13:22:00,
2013-03-12 08:28:00,8.4,5.3,29.98,NNW,336,7.0,14.0,87,0.00,,---,0.00,VWS V13.01,2013-03-12 13:28:00,
2013-03-12 08:33:00,8.5,5.4,29.99,NNW,336,5.0,12.0,87,0.00,,---,0.00,VWS V13.01,2013-03-12 13:33:00,
2013-03-12 08:38:00,8.4,5.3,29.99,North,5,11.0,14.0,87,0.00,,---,0.00,VWS V13.01,2013-03-12 13:38:00,
2013-03-12 08:43:00,8.3,5.0,29.99,NW,323,7.0,16.0,86,0.00,,---,0.00,VWS V13.01,2013-03-12 13:43:00,
2013-03-12 08:48:00,8.3,5.2,29.99,NNW,345,6.0,9.0,87,0.00,,---,0.00,VWS V13.01,2013-03-12 13:48:00,
2013-03-12 08:53:00,8.4,5.3,29.99,NNW,340,8.0,13.0,87,0.00,,---,0.00,VWS V13.01,2013-03-12 13:53:00,
2013-03-12 08:59:00,8.3,5.0,29.99,NNW,332,12.0,16.0,86,0.00,,---,0.00,VWS V13.01,2013-03-12 13:59:00,
2013-03-12 09:04:00,8.2,4.9,30.00,NNW,348,9.0,12.0,86,0.00,,---,0.00,VWS V13.01,2013-03-12 14:04:00,
2013-03-12 09:09:00,8.2,4.9,30.00,NW,314,9.0,14.0,86,0.00,,---,0.00,VWS V13.01,2013-03-12 14:09:00,
2013-03-12 09:14:00,8.2,4.9,30.00,NW,305,4.0,14.0,86,0.00,,---,0.00,VWS V13.01,2013-03-12 14:14:00,
2013-03-12 09:19:00,8.2,4.9,30.00,North,9,3.0,15.0,86,0.00,,---,0.00,VWS V13.01,2013-03-12 14:19:00,
2013-03-12 09:24:00,8.4,5.1,30.00,North,360,4.0,15.0,86,0.00,,---,0.00,VWS V13.01,2013-03-12 14:24:00,
2013-03-12 09:29:00,8.7,5.4,30.01,North,11,5.0,15.0,86,0.00,,---,0.00,VWS V13.01,2013-03-12 14:29:00,
2013-03-12 09:34:00,8.7,5.4,30.01,NNW,342,11.0,14.0,86,0.00,,---,0.00,VWS V13.01,2013-03-12 14:34:00,
2013-03-12 09:39:00,8.7,5.4,30.01,NNW,346,6.0,14.0,86,0.00,,---,0.00,VWS V13.01,2013-03-12 14:39:00,
2013-03-12 09:44:00,8.9,5.6,30.02,North,355,3.0,14.0,86,0.00,,---,0.00,VWS V13.01,2013-03-12 14:44:00,
2013-03-12 09:50:00,9.2,5.6,30.02,NNW,348,5.0,16.0,85,0.00,,---,0.00,VWS V13.01,2013-03-12 14:50:00,
2013-03-12 09:55:00,9.1,5.5,30.02,NNW,346,12.0,16.0,85,0.00,,---,0.00,VWS V13.01,2013-03-12 14:55:00,
2013-03-12 10:00:00,9.1,5.5,30.03,NNE,12,11.0,16.0,85,0.00,,---,0.00,VWS V13.01,2013-03-12 15:00:00,
2013-03-12 10:05:00,9.3,5.7,30.03,North,351,2.0,13.0,85,0.00,,---,0.00,VWS V13.01,2013-03-12 15:05:00,
2013-03-12 10:10:00,9.5,5.9,30.03,North,5,3.0,13.0,85,0.00,,---,0.00,VWS V13.01,2013-03-12 15:10:00,
2013-03-12 10:15:00,9.5,5.9,30.03,NW,325,6.0,13.0,85,0.00,,---,0.00,VWS V13.01,2013-03-12 15:15:00,
2013-03-12 10:20:00,9.8,6.2,30.03,NNW,334,6.0,10.0,85,0.00,,---,0.00,VWS V13.01,2013-03-12 15:20:00,
2013-03-12 10:25:00,9.9,6.3,30.03,North,355,5.0,13.0,85,0.00,,---,0.00,VWS V13.01,2013-03-12 15:25:00,
2013-03-12 10:30:00,9.8,6.2,30.04,NNW,338,3.0,7.0,85,0.00,,---,0.00,VWS V13.01,2013-03-12 15:30:00,
2013-03-12 10:35:00,9.8,6.2,30.04,NNW,328,6.0,14.0,85,0.00,,---,0.00,VWS V13.01,2013-03-12 15:35:00,
2013-03-12 10:41:00,9.9,6.3,30.04,North,360,12.0,14.0,85,0.00,,---,0.00,VWS V13.01,2013-03-12 15:41:00,
2013-03-12 10:46:00,10.3,6.7,30.04,North,5,4.0,9.0,85,0.00,,---,0.00,VWS V13.01,2013-03-12 15:46:00,
2013-03-12 10:52:00,10.6,7.0,30.04,NNE,17,4.0,11.0,85,0.00,,---,0.00,VWS V13.01,2013-03-12 15:52:00,
2013-03-12 10:57:00,10.9,7.3,30.04,North,360,2.0,11.0,85,0.00,,---,0.00,VWS V13.01,2013-03-12 15:57:00,
2013-03-12 11:02:00,11.2,7.3,30.02,NNE,13,7.0,14.0,84,0.00,,---,0.00,VWS V13.01,2013-03-12 16:02:00,
2013-03-12 11:07:00,11.2,7.6,30.02,NNE,28,5.0,14.0,85,0.00,,---,0.00,VWS V13.01,2013-03-12 16:07:00,
2013-03-12 11:12:00,11.4,7.5,30.02,NNW,333,4.0,14.0,84,0.00,,---,0.00,VWS V13.01,2013-03-12 16:12:00,
2013-03-12 11:17:00,11.4,7.8,30.03,North,5,5.0,9.0,85,0.00,,---,0.00,VWS V13.01,2013-03-12 16:17:00,
2013-03-12 11:22:00,11.8,8.2,30.03,NNE,19,9.0,10.0,85,0.00,,---,0.00,VWS V13.01,2013-03-12 16:22:00,
2013-03-12 11:27:00,12.1,8.5,30.03,NNE,22,9.0,10.0,85,0.00,,---,0.00,VWS V13.01,2013-03-12 16:27:00,
2013-03-12 11:32:00,12.2,8.3,30.04,North,360,6.0,14.0,84,0.00,,---,0.00,VWS V13.01,2013-03-12 16:32:00,
2013-03-12 11:38:00,12.4,8.8,30.04,NNW,339,10.0,14.0,85,0.00,,---,0.00,VWS V13.01,2013-03-12 16:38:00,
2013-03-12 11:43:00,12.4,8.5,30.04,North,355,7.0,14.0,84,0.00,,---,0.00,VWS V13.01,2013-03-12 16:43:00,
2013-03-12 11:48:00,12.3,8.4,30.05,NNE,15,2.0,17.0,84,0.00,,---,0.00,VWS V13.01,2013-03-12 16:48:00,
2013-03-12 11:53:00,12.6,8.7,30.05,NNW,340,5.0,17.0,84,0.00,,---,0.00,VWS V13.01,2013-03-12 16:53:00,
2013-03-12 11:58:00,12.7,9.1,30.05,NNW,345,7.0,17.0,85,0.00,,---,0.00,VWS V13.01,2013-03-12 16:58:00,
2013-03-12 12:03:00,12.7,8.8,30.04,NNE,17,10.0,14.0,84,0.00,,---,0.00,VWS V13.01,2013-03-12 17:03:00,
2013-03-12 12:08:00,12.8,9.1,30.04,North,5,9.0,15.0,85,0.00,,---,0.00,VWS V13.01,2013-03-12 17:08:00,
2013-03-12 12:13:00,12.8,9.1,30.04,WNW,301,3.0,15.0,85,0.00,,---,0.00,VWS V13.01,2013-03-12 17:13:00,
2013-03-12 12:18:00,13.0,9.6,30.06,NNE,19,6.0,11.0,86,0.00,,---,0.00,VWS V13.01,2013-03-12 17:18:00,
2013-03-12 12:23:00,13.2,9.6,30.06,WNW,292,7.0,12.0,85,0.00,,---,0.00,VWS V13.01,2013-03-12 17:23:00,
2013-03-12 12:29:00,13.5,9.8,30.06,North,355,9.0,12.0,85,0.00,,---,0.00,VWS V13.01,2013-03-12 17:29:00,
2013-03-12 12:34:00,13.6,9.9,30.06,North,9,5.0,19.0,85,0.00,,---,0.00,VWS V13.01,2013-03-12 17:34:00,
2013-03-12 12:39:00,13.9,10.2,30.06,North,5,7.0,19.0,85,0.00,,---,0.00,VWS V13.01,2013-03-12 17:39:00,
2013-03-12 12:44:00,14.1,10.4,30.06,NNW,340,3.0,19.0,85,0.00,,---,0.00,VWS V13.01,2013-03-12 17:44:00,
2013-03-12 12:49:00,14.1,10.4,30.06,NNE,15,5.0,14.0,85,0.01,,---,0.01,VWS V13.01,2013-03-12 17:49:00,
2013-03-12 12:54:00,14.4,10.7,30.06,WNW,284,4.0,14.0,85,0.01,,---,0.01,VWS V13.01,2013-03-12 17:54:00,
2013-03-12 12:59:00,14.5,10.8,30.06,WNW,294,4.0,14.0,85,0.01,,---,0.01,VWS V13.01,2013-03-12 17:59:00,
2013-03-12 13:04:00,14.5,10.8,30.06,NW,306,9.0,12.0,85,0.01,,---,0.01,VWS V13.01,2013-03-12 18:04:00,
2013-03-12 13:09:00,14.7,11.0,30.06,North,5,4.0,16.0,85,0.01,,---,0.01,VWS V13.01,2013-03-12 18:09:00,
2013-03-12 13:15:00,14.6,10.4,30.07,North,11,4.0,16.0,83,0.01,,---,0.01,VWS V13.01,2013-03-12 18:15:00,
2013-03-12 13:20:00,14.5,10.3,30.07,NE,46,5.0,16.0,83,0.01,,---,0.01,VWS V13.01,2013-03-12 18:20:00,
2013-03-12 13:25:00,14.9,10.9,30.07,NNE,19,8.0,16.0,84,0.01,,---,0.01,VWS V13.01,2013-03-12 18:25:00,
2013-03-12 13:30:00,15.1,11.1,30.07,North,5,7.0,13.0,84,0.01,,---,0.01,VWS V13.01,2013-03-12 18:30:00,
2013-03-12 13:35:00,15.4,11.4,30.07,NNW,333,5.0,14.0,84,0.01,,---,0.01,VWS V13.01,2013-03-12 18:35:00,
2013-03-12 13:40:00,15.5,11.3,30.07,NNW,345,10.0,15.0,83,0.01,,---,0.01,VWS V13.01,2013-03-12 18:40:00,
2013-03-12 13:45:00,15.3,11.1,30.06,North,360,12.0,12.0,83,0.01,,---,0.01,VWS V13.01,2013-03-12 18:45:00,
2013-03-12 13:50:00,15.3,11.1,30.06,North,360,8.0,17.0,83,0.01,,---,0.01,VWS V13.01,2013-03-12 18:50:00,
2013-03-12 13:56:00,15.7,11.7,30.06,North,355,4.0,17.0,84,0.01,,---,0.01,VWS V13.01,2013-03-12 18:56:00,
2013-03-12 14:01:00,15.9,12.2,30.06,NNW,344,14.0,14.0,85,0.01,,---,0.01,VWS V13.01,2013-03-12 19:01:00,
2013-03-12 14:06:00,15.6,11.6,30.06,NNW,327,8.0,16.0,84,0.00,,---,0.01,VWS V13.01,2013-03-12 19:06:00,
2013-03-12 14:11:00,15.8,11.6,30.06,North,5,13.0,16.0,83,0.00,,---,0.01,VWS V13.01,2013-03-12 19:11:00,
2013-03-12 14:17:00,15.9,11.9,30.07,NNW,332,6.0,12.0,84,0.00,,---,0.01,VWS V13.01,2013-03-12 19:17:00,
2013-03-12 14:22:00,16.0,12.0,30.07,NNW,340,4.0,15.0,84,0.00,,---,0.01,VWS V13.01,2013-03-12 19:22:00,
2013-03-12 14:27:00,16.0,11.8,30.07,NNE,13,7.0,15.0,83,0.00,,---,0.01,VWS V13.01,2013-03-12 19:27:00,
2013-03-12 14:32:00,16.1,11.9,30.07,North,360,3.0,13.0,83,0.00,,---,0.01,VWS V13.01,2013-03-12 19:32:00,
2013-03-12 14:37:00,16.4,12.7,30.07,NNE,22,6.0,13.0,85,0.01,,---,0.02,VWS V13.01,2013-03-12 19:37:00,
2013-03-12 14:43:00,16.5,13.1,30.07,NNW,330,10.0,13.0,86,0.01,,---,0.02,VWS V13.01,2013-03-12 19:43:00,
2013-03-12 14:48:00,16.5,12.8,30.07,North,355,8.0,11.0,85,0.01,,---,0.02,VWS V13.01,2013-03-12 19:48:00,
2013-03-12 14:53:00,16.3,12.6,30.07,NNE,22,7.0,14.0,85,0.01,,---,0.02,VWS V13.01,2013-03-12 19:53:00,
2013-03-12 14:58:00,16.4,12.9,30.07,NNW,336,5.0,14.0,86,0.01,,---,0.02,VWS V13.01,2013-03-12 19:58:00,
2013-03-12 15:03:00,16.5,13.1,30.08,North,5,10.0,10.0,86,0.01,,---,0.02,VWS V13.01,2013-03-12 20:03:00,
2013-03-12 15:08:00,16.4,13.2,30.08,WNW,302,1.0,12.0,87,0.01,,---,0.02,VWS V13.01,2013-03-12 20:08:00,
2013-03-12 15:13:00,16.4,12.9,30.08,NNW,337,9.0,14.0,86,0.01,,---,0.02,VWS V13.01,2013-03-12 20:13:00,
2013-03-12 15:18:00,16.3,12.9,30.10,NW,319,1.0,13.0,86,0.01,,---,0.02,VWS V13.01,2013-03-12 20:18:00,
2013-03-12 15:24:00,16.4,12.7,30.10,NNE,24,4.0,15.0,85,0.01,,---,0.02,VWS V13.01,2013-03-12 20:24:00,
2013-03-12 15:29:00,16.4,12.9,30.10,NNW,344,5.0,15.0,86,0.01,,---,0.02,VWS V13.01,2013-03-12 20:29:00,
2013-03-12 15:34:00,16.6,13.1,30.10,North,355,6.0,12.0,86,0.01,,---,0.02,VWS V13.01,2013-03-12 20:34:00,
2013-03-12 15:39:00,16.7,13.2,30.10,NNE,23,5.0,13.0,86,0.01,,---,0.02,VWS V13.01,2013-03-12 20:39:00,
2013-03-12 15:44:00,16.8,13.4,30.09,NNW,342,6.0,13.0,86,0.01,,---,0.02,VWS V13.01,2013-03-12 20:44:00,
2013-03-12 15:49:00,16.6,13.1,30.09,North,355,8.0,16.0,86,0.00,,---,0.02,VWS V13.01,2013-03-12 20:49:00,
2013-03-12 15:54:00,16.7,13.5,30.09,North,350,5.0,16.0,87,0.00,,---,0.02,VWS V13.01,2013-03-12 20:54:00,
2013-03-12 15:59:00,16.9,14.0,30.10,NNW,340,3.0,16.0,88,0.00,,---,0.02,VWS V13.01,2013-03-12 20:59:00,
2013-03-12 16:04:00,16.8,13.9,30.10,North,360,4.0,14.0,88,0.00,,---,0.02,VWS V13.01,2013-03-12 21:04:00,
2013-03-12 16:10:00,16.7,13.8,30.10,NNW,335,7.0,14.0,88,0.00,,---,0.02,VWS V13.01,2013-03-12 21:10:00,
2013-03-12 16:15:00,16.5,13.6,30.12,North,355,4.0,15.0,88,0.00,,---,0.02,VWS V13.01,2013-03-12 21:15:00,
2013-03-12 16:20:00,16.5,13.3,30.12,North,10,8.0,17.0,87,0.00,,---,0.02,VWS V13.01,2013-03-12 21:20:00,
2013-03-12 16:25:00,16.6,13.1,30.12,North,5,12.0,17.0,86,0.00,,---,0.02,VWS V13.01,2013-03-12 21:25:00,
2013-03-12 16:30:00,16.6,13.4,30.14,NW,309,3.0,3.0,87,0.00,,---,0.02,VWS V13.01,2013-03-12 21:30:00,
2013-03-12 16:36:00,16.4,13.5,30.14,WNW,288,10.0,21.0,88,0.00,,---,0.02,VWS V13.01,2013-03-12 21:36:00,
2013-03-12 16:41:00,16.3,13.4,30.14,NNE,24,4.0,21.0,88,0.00,,---,0.02,VWS V13.01,2013-03-12 21:41:00,
2013-03-12 16:46:00,16.2,13.3,30.15,North,9,8.0,14.0,88,0.00,,---,0.02,VWS V13.01,2013-03-12 21:46:00,
2013-03-12 16:51:00,16.0,13.1,30.15,NW,311,7.0,17.0,88,0.00,,---,0.02,VWS V13.01,2013-03-12 21:51:00,
2013-03-12 16:56:00,16.0,13.1,30.15,NNW,343,6.0,17.0,88,0.00,,---,0.02,VWS V13.01,2013-03-12 21:56:00,
2013-03-12 17:01:00,15.8,13.1,30.15,NW,312,10.0,11.0,89,0.00,,---,0.02,VWS V13.01,2013-03-12 22:01:00,
2013-03-12 17:06:00,15.8,13.1,30.15,NW,311,10.0,12.0,89,0.00,,---,0.02,VWS V13.01,2013-03-12 22:06:00,
2013-03-12 17:12:00,15.7,13.0,30.15,NW,325,9.0,12.0,89,0.00,,---,0.02,VWS V13.01,2013-03-12 22:12:00,
2013-03-12 17:17:00,15.4,12.5,30.18,WNW,299,8.0,10.0,88,0.01,,---,0.03,VWS V13.01,2013-03-12 22:17:00,
2013-03-12 17:22:00,15.2,12.3,30.18,NNE,13,4.0,13.0,88,0.01,,---,0.03,VWS V13.01,2013-03-12 22:22:00,
2013-03-12 17:27:00,14.9,12.0,30.18,NNW,339,10.0,16.0,88,0.01,,---,0.03,VWS V13.01,2013-03-12 22:27:00,
2013-03-12 17:32:00,14.8,11.9,30.20,NNW,329,5.0,13.0,88,0.01,,---,0.03,VWS V13.01,2013-03-12 22:32:00,
2013-03-12 17:37:00,14.7,11.8,30.20,North,5,10.0,21.0,88,0.01,,---,0.03,VWS V13.01,2013-03-12 22:37:00,
2013-03-12 17:42:00,14.6,11.7,30.20,NNW,342,12.0,22.0,88,0.01,,---,0.03,VWS V13.01,2013-03-12 22:42:00,
2013-03-12 17:47:00,14.3,11.1,30.21,NNW,329,6.0,15.0,87,0.01,,---,0.03,VWS V13.01,2013-03-12 22:47:00,
2013-03-12 17:52:00,14.1,10.7,30.21,North,360,6.0,15.0,86,0.01,,---,0.03,VWS V13.01,2013-03-12 22:52:00,
2013-03-12 17:57:00,14.1,10.7,30.21,NNE,14,7.0,15.0,86,0.01,,---,0.03,VWS V13.01,2013-03-12 22:57:00,
2013-03-12 18:02:00,14.0,12.8,30.23,North,360,5.0,12.0,95,0.01,,---,0.03,VWS V13.01,2013-03-12 23:02:00,
2013-03-12 18:07:00,13.9,10.8,30.23,NW,325,5.0,13.0,87,0.01,,---,0.03,VWS V13.01,2013-03-12 23:07:00,
2013-03-12 18:12:00,13.8,10.6,30.23,NNW,336,3.0,15.0,87,0.01,,---,0.03,VWS V13.01,2013-03-12 23:12:00,
2013-03-12 18:17:00,13.6,10.5,30.25,NNW,340,5.0,11.0,87,0.00,,---,0.03,VWS V13.01,2013-03-12 23:17:00,
2013-03-12 18:23:00,13.4,10.0,30.25,NW,325,7.0,11.0,86,0.00,,---,0.03,VWS V13.01,2013-03-12 23:23:00,
2013-03-12 18:28:00,13.2,9.6,30.25,NNW,341,2.0,16.0,85,0.00,,---,0.03,VWS V13.01,2013-03-12 23:28:00,
2013-03-12 18:33:00,13.0,9.4,30.25,NW,312,4.0,15.0,85,0.00,,---,0.03,VWS V13.01,2013-03-12 23:33:00,
2013-03-12 18:38:00,12.9,9.2,30.25,NNW,335,2.0,15.0,85,0.00,,---,0.03,VWS V13.01,2013-03-12 23:38:00,
2013-03-12 18:43:00,12.8,9.1,30.25,NNW,331,9.0,15.0,85,0.00,,---,0.03,VWS V13.01,2013-03-12 23:43:00,
2013-03-12 18:48:00,12.7,9.3,30.27,North,355,4.0,18.0,86,0.00,,---,0.03,VWS V13.01,2013-03-12 23:48:00,
2013-03-12 18:54:00,12.7,9.1,30.27,NNW,344,4.0,18.0,85,0.00,,---,0.03,VWS V13.01,2013-03-12 23:54:00,
2013-03-12 18:59:00,12.7,9.1,30.27,NNW,335,4.0,18.0,85,0.00,,---,0.03,VWS V13.01,2013-03-12 23:59:00,
2013-03-12 19:04:00,12.6,9.2,30.27,NNW,329,3.0,5.0,86,0.00,,---,0.03,VWS V13.01,2013-03-13 00:04:00,
2013-03-12 19:09:00,12.5,8.9,30.27,NW,322,1.0,7.0,85,0.00,,---,0.03,VWS V13.01,2013-03-13 00:09:00,
2013-03-12 19:14:00,12.5,8.9,30.27,WNW,288,1.0,7.0,85,0.00,,---,0.03,VWS V13.01,2013-03-13 00:14:00,
2013-03-12 19:19:00,12.5,8.9,30.27,NW,321,3.0,10.0,85,0.00,,---,0.03,VWS V13.01,2013-03-13 00:19:00,
2013-03-12 19:24:00,12.6,9.0,30.27,NW,321,3.0,10.0,85,0.00,,---,0.03,VWS V13.01,2013-03-13 00:24:00,
2013-03-12 19:30:00,12.5,8.6,30.28,WNW,300,4.0,10.0,84,0.00,,---,0.03,VWS V13.01,2013-03-13 00:30:00,
2013-03-12 19:35:00,12.5,8.6,30.28,WNW,286,3.0,7.0,84,0.00,,---,0.03,VWS V13.01,2013-03-13 00:35:00,
2013-03-12 19:40:00,12.5,8.6,30.28,WNW,299,2.0,7.0,84,0.00,,---,0.03,VWS V13.01,2013-03-13 00:40:00,
2013-03-12 19:45:00,12.6,8.7,30.28,NW,318,0.0,7.0,84,0.00,,---,0.03,VWS V13.01,2013-03-13 00:45:00,
2013-03-12 19:50:00,12.6,8.7,30.28,NNW,329,6.0,10.0,84,0.00,,---,0.03,VWS V13.01,2013-03-13 00:50:00,
2013-03-12 19:55:00,12.7,8.5,30.28,WNW,303,5.0,10.0,83,0.00,,---,0.03,VWS V13.01,2013-03-13 00:55:00,
2013-03-12 20:00:00,12.8,8.6,30.29,WNW,296,2.0,4.0,83,0.00,,---,0.03,VWS V13.01,2013-03-13 01:00:00,
2013-03-12 20:05:00,12.7,8.5,30.29,NNW,340,4.0,10.0,83,0.00,,---,0.03,VWS V13.01,2013-03-13 01:05:00,
2013-03-12 20:10:00,12.8,8.6,30.29,NW,314,3.0,10.0,83,0.00,,---,0.03,VWS V13.01,2013-03-13 01:10:00,
2013-03-12 20:15:00,12.8,8.6,30.31,NNW,339,3.0,7.0,83,0.00,,---,0.03,VWS V13.01,2013-03-13 01:15:00,
2013-03-12 20:21:00,12.8,8.4,30.31,NNW,336,3.0,10.0,82,0.00,,---,0.03,VWS V13.01,2013-03-13 01:21:00,
2013-03-12 20:32:00,12.8,8.1,30.32,NNW,341,2.0,4.0,81,0.00,,---,0.03,VWS V13.01,2013-03-13 01:32:00,
2013-03-12 20:38:00,12.8,7.8,30.32,NNW,347,1.0,10.0,80,0.00,,---,0.03,VWS V13.01,2013-03-13 01:38:00,
2013-03-12 20:43:00,12.7,7.7,30.32,NNW,338,0.0,10.0,80,0.00,,---,0.03,VWS V13.01,2013-03-13 01:43:00,
2013-03-12 20:48:00,12.6,7.6,30.33,NNW,338,3.0,5.0,80,0.00,,---,0.03,VWS V13.01,2013-03-13 01:48:00,
2013-03-12 20:53:00,12.6,7.6,30.33,NNW,337,2.0,5.0,80,0.00,,---,0.03,VWS V13.01,2013-03-13 01:53:00,
2013-03-12 20:58:00,12.4,7.7,30.33,NNW,335,2.0,9.0,81,0.00,,---,0.03,VWS V13.01,2013-03-13 01:58:00,
2013-03-12 21:03:00,12.4,7.4,30.33,NNW,331,4.0,5.0,80,0.00,,---,0.03,VWS V13.01,2013-03-13 02:03:00,
2013-03-12 21:09:00,12.4,7.1,30.33,NNW,347,6.0,10.0,79,0.00,,---,0.03,VWS V13.01,2013-03-13 02:09:00,
2013-03-12 21:14:00,12.4,7.4,30.33,North,355,4.0,10.0,80,0.00,,---,0.03,VWS V13.01,2013-03-13 02:14:00,
2013-03-12 21:19:00,12.4,7.1,30.33,NW,325,1.0,7.0,79,0.00,,---,0.03,VWS V13.01,2013-03-13 02:19:00,
2013-03-12 21:24:00,12.4,7.1,30.33,NNW,344,3.0,7.0,79,0.00,,---,0.03,VWS V13.01,2013-03-13 02:24:00,
2013-03-12 21:29:00,12.3,6.8,30.34,NNW,338,4.0,8.0,78,0.00,,---,0.03,VWS V13.01,2013-03-13 02:29:00,
2013-03-12 21:34:00,12.3,7.0,30.34,NW,321,3.0,5.0,79,0.00,,---,0.03,VWS V13.01,2013-03-13 02:34:00,
2013-03-12 21:39:00,12.3,7.0,30.34,NW,318,3.0,6.0,79,0.00,,---,0.03,VWS V13.01,2013-03-13 02:39:00,
2013-03-12 21:45:00,12.2,6.9,30.34,NW,318,2.0,6.0,79,0.00,,---,0.03,VWS V13.01,2013-03-13 02:45:00,
2013-03-12 21:50:00,12.1,6.6,30.34,NW,318,1.0,5.0,78,0.00,,---,0.03,VWS V13.01,2013-03-13 02:50:00,
2013-03-12 21:55:00,12.0,6.5,30.34,NW,314,0.0,6.0,78,0.00,,---,0.03,VWS V13.01,2013-03-13 02:55:00,
2013-03-12 22:00:00,12.1,6.6,30.35,NW,323,3.0,3.0,78,0.00,,---,0.03,VWS V13.01,2013-03-13 03:00:00,
2013-03-12 22:05:00,12.0,6.5,30.35,NW,318,1.0,7.0,78,0.00,,---,0.03,VWS V13.01,2013-03-13 03:05:00,
2013-03-12 22:10:00,12.0,6.5,30.35,NW,311,3.0,7.0,78,0.00,,---,0.03,VWS V13.01,2013-03-13 03:10:00,
2013-03-12 22:16:00,11.9,6.4,30.33,NNW,327,1.0,3.0,78,0.00,,---,0.03,VWS V13.01,2013-03-13 03:16:00,
2013-03-12 22:22:00,11.8,6.0,30.33,NW,323,1.0,7.0,77,0.00,,---,0.03,VWS V13.01,2013-03-13 03:22:00,
2013-03-12 22:27:00,11.8,6.3,30.33,NW,321,1.0,7.0,78,0.00,,---,0.03,VWS V13.01,2013-03-13 03:27:00,
2013-03-12 22:32:00,11.7,5.9,30.33,NW,320,3.0,5.0,77,0.00,,---,0.03,VWS V13.01,2013-03-13 03:32:00,
2013-03-12 22:37:00,11.7,5.9,30.33,WNW,289,2.0,7.0,77,0.00,,---,0.03,VWS V13.01,2013-03-13 03:37:00,
2013-03-12 22:42:00,11.6,6.1,30.33,NW,315,6.0,7.0,78,0.00,,---,0.03,VWS V13.01,2013-03-13 03:42:00,
2013-03-12 22:47:00,11.6,5.8,30.34,NNW,330,3.0,5.0,77,0.00,,---,0.03,VWS V13.01,2013-03-13 03:47:00,
2013-03-12 22:52:00,11.5,5.7,30.34,NW,308,4.0,5.0,77,0.00,,---,0.03,VWS V13.01,2013-03-13 03:52:00,
2013-03-12 22:57:00,11.4,5.6,30.34,NW,311,4.0,9.0,77,0.00,,---,0.03,VWS V13.01,2013-03-13 03:57:00,
2013-03-12 23:00:00,11.4,5.6,30.35,NW,306,2.0,9.0,77,0.00,,---,0.03,VWS V13.01,2013-03-13 04:00:00,
2013-03-12 23:02:00,11.4,5.9,30.35,NW,310,5.0,7.0,78,0.00,,---,0.03,VWS V13.01,2013-03-13 04:02:00,
2013-03-12 23:07:00,11.3,5.5,30.35,NW,319,0.0,7.0,77,0.00,,---,0.03,VWS V13.01,2013-03-13 04:07:00,
2013-03-12 23:12:00,11.1,5.6,30.35,NW,319,3.0,7.0,78,0.00,,---,0.03,VWS V13.01,2013-03-13 04:12:00,
2013-03-12 23:17:00,10.9,5.4,30.33,NW,315,0.0,4.0,78,0.00,,---,0.03,VWS V13.01,2013-03-13 04:17:00,
2013-03-12 23:22:00,10.7,5.2,30.33,NW,315,1.0,4.0,78,0.00,,---,0.03,VWS V13.01,2013-03-13 04:22:00,
2013-03-12 23:27:00,10.7,5.2,30.33,NW,316,1.0,5.0,78,0.00,,---,0.03,VWS V13.01,2013-03-13 04:27:00,
2013-03-12 23:32:00,10.7,5.2,30.33,NW,314,1.0,5.0,78,0.00,,---,0.03,VWS V13.01,2013-03-13 04:32:00,
2013-03-12 23:37:00,10.6,5.1,30.33,NW,319,1.0,5.0,78,0.00,,---,0.03,VWS V13.01,2013-03-13 04:37:00,
2013-03-12 23:43:00,10.5,5.0,30.33,NNW,330,0.0,7.0,78,0.00,,---,0.03,VWS V13.01,2013-03-13 04:43:00,
2013-03-12 23:48:00,10.4,4.9,30.34,NNW,330,0.0,2.0,78,0.00,,---,0.03,VWS V13.01,2013-03-13 04:48:00,
2013-03-12 23:53:00,10.2,4.7,30.34,NNW,328,4.0,5.0,78,0.00,,---,0.03,VWS V13.01,2013-03-13 04:53:00,
2013-03-12 23:58:00,10.1,4.6,30.34,NNW,328,1.0,5.0,78,0.00,,---,0.03,VWS V13.01,2013-03-13 04:58:00,